Location: Carson
(33.8314°N, 118.2820°W)
Time: 23:41:25
(UTC+00:00)

GPS 2-04 Rocket1 - Pass Details

Date: 23 November 2020
Orbit: 416 x 544 km, 35.6° (Epoch: 20 January)

Event Time Altitude Azimuth Distance (km) Brightness Sun altitude
Exits shadow 13:17:41 16° 231° (SW) 1,329 4.4 -15.6°
Maximum altitude 13:20:30 50° 159° (SSE) 612 3.3 -15.1°
Drops below altitude 10° 13:24:04 10° 83° (E) 1,609 6.3 -14.4°
Sets 13:26:13 0° 78° (ENE) 2,460 7.3 -13.9°
